Regional Weather Roundup
Issued by NWS

Home | Current Version | Previous Version | Text Only | Print | Product List | Glossary On
Versions: 1 2 3 4 5 6 7 8 9 10 11 12 13 14 15 16 17 18 19 20 21 22 23 24 25 26 27 28 29 30 31 32 33 34 35 36 37 38 39 40 41 42 43 44 45 46 47 48 49 50
000
ASUS44 KOUN 270810
RWROK

WEATHER ROUNDUP FOR OKLAHOMA
NATIONAL WEATHER SERVICE NORMAN OK
300 AM CDT TUE SEP 27 2016

NOTE: "FAIR" INDICATES FEW OR NO CLOUDS BELOW 12,000 FEET WITH NO
      SIGNIFICANT WEATHER AND/OR OBSTRUCTIONS TO VISIBILITY.

OKZ001>007-009>012-014-015-017-270900-
NORTHWEST OKLAHOMA AND THE PANHANDLE

CITY           SKY/WX    TMP DP  RH WIND       PRES   REMARKS
GAGE           CLEAR     49  43  80 SW5       30.21S
GUYMON         CLEAR     53  37  54 SW10      30.23S
ENID/WOODRING  CLEAR     52  50  93 CALM      30.15F
$$

OKZ016-021>023-033>039-044-045-270900-
SOUTHWEST OKLAHOMA

CITY           SKY/WX    TMP DP  RH WIND       PRES   REMARKS
LAWTON/REGL    PTCLDY    52  50  93 CALM      30.18F
LAWTON/FT SILL MOCLDY    55  46  71 CALM      30.17S HAZE
FREDERICK      PTCLDY    57  46  66 N7        30.16F
CLINTON        PTCLDY    54  47  77 SW7       30.22S
HOBART         CLOUDY    54  51  90 NW5       30.20F FOG
ALTUS AFB      CLEAR     56  48  76 NW7       30.19F
$$

OKZ018>020-024>031-270900-
CENTRAL OKLAHOMA

CITY           SKY/WX    TMP DP  RH WIND       PRES   REMARKS
OKLAHOMA CITY  MOCLDY    55  50  83 CALM      30.17S
OKC/WILEY POST CLOUDY    54  50  86 CALM      30.18S
OKC/TINKER AFB CLOUDY    61  46  59 NW2       30.16S
STILLWATER     CLOUDY    48  47  96 W3        30.16F
GUTHRIE        CLOUDY    51  50  96 CALM      30.17S
$$

OKZ008-013-054>072-270900-
NORTHEAST OKLAHOMA

CITY           SKY/WX    TMP DP  RH WIND       PRES   REMARKS
TULSA          CLOUDY    53  51  93 N3        30.14S
TULSA/JONES    CLOUDY    51  48  89 CALM      30.15S FOG
PONCA CITY     CLEAR     52  48  86 CALM      30.16S
BARTLESVILLE   CLOUDY    46  44  93 CALM      30.16F
MUSKOGEE       CLOUDY    51  47  86 CALM      30.15F FOG
$$

OKZ032-040>043-046>053-073>077-270900-
SOUTH CENTRAL/SOUTHEAST OKLAHOMA

CITY           SKY/WX    TMP DP  RH WIND       PRES   REMARKS
ARDMORE/DWNTWN CLOUDY    52  48  87 CALM      30.15S
MCALESTER      PTCLDY    54  50  86 CALM      30.15R
$$





USA.gov is the U.S. government's official web portal to all federal, state and local government web resources and services.